铱星星座 73星 (IRIDIUM 73)

导读 | 豆包AI

IRIDIUM 73是美国铱星系统中的第一代低轨通信卫星,于1998年5月17日发射入轨,是全球首批低轨移动卫星通信星座的组成部分。作为铱星系统72颗组网卫星之一,运行于约780公里高度的极地圆轨道,通过星上交换与星际链路,为全球包括南北极在内任何区域提供语音、数据、传真等移动通信服务,支撑起首个覆盖全球的卫星通信网络。

基本信息
目录编号:
25344
目录名称:
IRIDIUM 73
国际标识:
1998-032C
轨道中心:
EARTH
卫星名称:
铱星星座 73星
卫星全名:
铱星星座 73星 (IRIDIUM 73)
卫星状态:
在轨 (已飞行10209 天)
发射日期:
1998-05-17 UTC
国别 :
美国 (US)
星等 :
--
轨道信息
数据来源 国际轨道数据 AOE轨道数据
星历时间 2026-04-29T12:28:05+0800
11小时前
查看轨道信息
2026-04-26T13:00:00+0800
3天前
查看轨道信息
半长轴 7096.697km 7096.703km
偏心率 0.0002372 0.0002347
轨道倾角 86.437° 86.437°
近地点辐角 75.824° 75.775°
升交点赤经 272.554° 273.822°
平近点角 284.323° 206.778°
近地点 716.876km 716.9km
远地点 720.244km 720.232km
周期 99.162分钟 99.162分钟
每日圈数 14.521732 14.521713
详细信息
平衡模式:
三轴稳定
覆盖范围:
全球
运营商:
铱星通信公司
运营商所在国:
美国
使用方式:
暂无
卫星简介
铱星(Iridium)是由共66个运作中的通信卫星组成的卫星通信系统。这个系统原本规划77个通信卫星,所以用原子序数为77的铱元素来命名。铱卫星允许人们使用手持型电子设备进行全球性的语音及数据通讯。该卫星已退役。
2D轨道图
3D轨道图
轨道高度分析图
轨道倾角分析图
轨道综合分析图
查看轨道综合分析图